COSMOS 2569 (703K)

Last updated on Mon Jun 22 2026 00:02:55 GMT+0000 (Coordinated Universal Time)

1 57517U 23114A 26172.00750013 -.00000048 00000+0 00000+0 0 9991 2 57517 65.3042 72.4915 0010518 296.8945 63.0344 2.13103720 22343
UTC large
Height (km)
Speed (km/s)
/
Latitude / Longitude
Inclination (degrees)
Orbital Period (minutes)
Azimuth
Elevation
Range (km)
Doppler Factor

Next 0 passes for location: London (51.5072 / 0.1276)

No passes found over London.
COSMOS 2569 (703K)